Location: Taukkyan
(23.1052°N, 94.0030°E)
Time: 11:19:22
(UTC+00:00)

CENTAUR R/B - Pass Details

Date: 06 July 2020
Orbit: 756 x 1432 km, 63.5° (Epoch: 11 August)

Event Time Altitude Azimuth Distance (km) Brightness Sun altitude
Exits shadow 21:49:33 - 175° (S) 3,187 4.9 -15.8°
Reaches altitude 10° 21:52:09 10° 162° (SSE) 2,335 4.4 -15.3°
Maximum altitude 21:56:25 25° 108° (ESE) 1,634 4.2 -14.5°
Drops below altitude 10° 22:01:04 10° 55° (NE) 2,578 6.2 -13.6°
Sets 22:04:11 0° 43° (NE) 3,634 7.1 -13.0°
